STARLINK-1319, 45379

Orbit data source: Space-Track

STARLINK-1319, 45379 is a payload satellite owned by SpaceX/Seattle (US) in LEO that was launched on Wed, 18 Mar 2020 UTC via an FALCON 9 launch vehicle from the Air Force Eastern Test Range (AFETR). Payload-class satellites include a variety of spacecraft equipped with specific instruments for various scientific and technological missions. These include communications satellites like Starlink; space stations such as the ISS; scientific satellites like the Hubble; Earth observation satellites from companies like Planet Labs, Umbra, and HawkEye 360; GPS; miniature CubeSats for education and research; and military/defense satellites.

Loading next visibility...
Identifier
45379, 2020-019V
Orbit
LEO
Country
Flag of USUS
Related business
Manufacturer
SpaceX/Seattle
Mission
Operational Commercial Communications
Bus & Motor
STARLINK, Unknown motor
Mass
260 kg wet, ~248 kg dry
Launch date (UTC)
2020-03-18 (6 years ago)
Launch vehicle
FALCON 9
Launch site
Air Force Eastern Test Range (AFETR)
Object type
Payload
Rocket body
Debris
Shape & HBR
Box + 1 Pan, 10.1 m
Radar Cross Section
13.562 m², Large (>1 m²)

Expand to show TLE details & history
Last TLE update: 13 hours ago

TLE from 13 hours ago
0 STARLINK-1319
1 45379U 20019V   25288.97838688 -.00000183  00000-0  66328-5 0  9995
2 45379  53.0540  96.2539 0001375  92.9754 267.1392 15.06396172307924
Epoch: 2025-10-15T23:28Z
TLE epoch observation values (Epoch: 2025-10-15T23:28:52.626Z)
Latitude
-0.00005°
Longitude
79.28988°
Altitude
548.15 km
Speed
7.589 km/s
True Right ascension
06h 25m 00s
True Declination
0° 00' 00"
Sunlit
Object was in daylight at epoch
Visualization orbit readout
Latitude
Unknown
Longitude
Unknown
Altitude
Unknown
Speed
Unknown
Apparent Right ascension
Unknown
Apparent Declination
Unknown
Sunlit
N/A
Visualization observer readout
Local Sidereal Time
07:35:16
Azimuth
Unknown
Elevation
Unknown
Doppler factor
Unknown
Orbital elements
Apogee altitude
548.446 km
Perigee altitude
546.542 km
Semi-major axis
6,925.631 km
Eccentricity
0.00014
Inclination
53.054°
RAAN
96.2539°
Arg. of periapsis
92.9754°
True anomaly
267.12346°
Mean anomaly
267.1392°
Eccentric anomaly
267.13133°
Mean motion
3.76577 °/min
Orbital period
95.6 mins
BSTAR
0.0000066328
Loading maneuver chart data...
Computing Atmospheric mass density...

Documentation

Showing up to 5 results
|